Date String (YYYY-MM-DD hh:mm:ss) UTC,Instrument flags,Ambient pressure (hPa),Sample flow (lpm),Bypass flow (lpm),Sample temperature (°C),Ambient temperature (°C),ASC tube jacket temperature (°C),LED temperature (°C),Box temperature (°C),Sample RH (%),Span deviation,Mass concentration (μg/m³),Mass concentration (μg/m³),Mass concentration (μg/m³)
DateTimeUTC,F1_M11,P_M11,Q1_M11,Q2_M11,T1_M11,T2_M11,T3_M11,T4_M11,T5_M11,U1_M11,ZSPAN_M11,X0_M11,X2_M11,X1_M11
2022-08-13 18:00:00,,0831.7,5.00,0.00,29.9,27.3,00.0,38.4,31.1,34.7,0000.0,0011.34,0006.18,0005.29
2022-08-13 18:01:00,,0831.7,4.99,0.00,29.9,27.2,00.0,38.3,31.2,34.4,0000.0,0011.48,0006.18,0005.29
2022-08-13 18:02:00,,0831.6,5.01,0.00,29.9,27.3,00.0,38.3,31.1,34.7,0000.0,0013.20,0006.19,0005.28
2022-08-13 18:03:00,,0831.7,5.01,0.00,29.9,27.4,00.0,38.3,31.1,34.7,0000.0,0013.38,0006.17,0005.27
2022-08-13 18:04:00,,0831.7,4.99,0.00,29.9,27.6,00.0,38.3,31.2,34.7,0000.0,0013.60,0006.14,0005.25
2022-08-13 18:05:00,,0831.6,4.99,0.00,29.9,27.8,00.0,38.4,31.2,34.7,0000.0,0013.59,0006.13,0005.24
2022-08-13 18:06:00,,0831.6,5.01,0.00,29.9,28.0,00.0,38.4,31.3,34.5,0000.0,0013.47,0006.08,0005.22
2022-08-13 18:07:00,,0831.6,5.00,0.00,29.9,28.1,00.0,38.4,31.4,34.4,0000.0,0012.72,0006.06,0005.24
2022-08-13 18:08:00,,0831.6,5.00,0.00,30.0,28.2,00.0,38.4,31.4,34.4,0000.0,0013.23,0006.08,0005.24
2022-08-13 18:09:00,,0831.5,5.01,0.00,29.9,27.7,00.0,38.4,31.2,34.5,0000.0,0013.59,0006.08,0005.24
2022-08-13 18:10:00,,0831.5,4.98,0.00,29.9,27.2,00.0,38.4,31.1,34.8,0000.0,0014.13,0006.07,0005.23
2022-08-13 18:11:00,,0831.5,5.00,0.00,29.8,27.1,00.0,38.4,31.1,34.9,0000.0,0014.80,0006.07,0005.23
2022-08-13 18:12:00,,0831.5,5.00,0.00,29.9,27.2,00.0,38.3,31.1,35.1,0000.0,0014.55,0006.08,0005.23
2022-08-13 18:13:00,,0831.5,4.99,0.00,30.0,27.4,00.0,38.3,31.2,34.5,0000.0,0013.13,0006.11,0005.23
2022-08-13 18:14:00,,0831.5,5.00,0.00,30.1,27.6,00.0,38.4,31.3,34.4,0000.0,0012.92,0006.14,0005.23
2022-08-13 18:15:00,,0831.5,4.98,0.00,30.2,27.8,00.0,38.4,31.4,34.8,0000.0,0012.44,0006.15,0005.23
2022-08-13 18:16:00,,0831.5,5.00,0.00,30.3,27.9,00.0,38.4,31.4,35.0,0000.0,0012.47,0006.14,0005.24
2022-08-13 18:17:00,,0831.5,5.00,0.00,30.5,28.0,00.0,38.5,31.5,34.2,0000.0,0012.63,0006.16,0005.24
2022-08-13 18:18:00,,0831.5,5.01,0.00,30.5,27.7,00.0,38.5,31.4,33.5,0000.0,0013.11,0006.11,0005.22
2022-08-13 18:19:00,,0831.5,4.99,0.00,30.5,27.2,00.0,38.5,31.2,33.4,0000.0,0012.26,0006.08,0005.21
2022-08-13 18:20:00,,0831.5,5.00,0.00,30.4,27.1,00.0,38.5,31.2,33.4,0000.0,0012.08,0006.12,0005.22
2022-08-13 18:21:00,,0831.4,5.00,0.00,30.3,27.2,00.0,38.5,31.1,33.6,0000.0,0011.46,0006.08,0005.22
2022-08-13 18:22:00,,0831.5,4.99,0.00,30.3,27.3,00.0,38.5,31.1,33.7,0000.0,0010.79,0006.10,0005.22
2022-08-13 18:23:00,,0831.4,5.01,0.00,30.3,27.5,00.0,38.6,31.2,33.9,0000.0,0010.89,0006.09,0005.22
2022-08-13 18:24:00,,0831.5,4.99,0.00,30.3,27.7,00.0,38.6,31.3,33.8,0000.0,0010.67,0006.07,0005.23
2022-08-13 18:25:00,,0831.5,5.00,0.00,30.3,27.9,00.0,38.6,31.4,33.7,0000.0,0011.98,0006.04,0005.24
2022-08-13 18:26:00,,0831.4,5.01,0.00,30.3,28.1,00.0,38.6,31.4,33.7,0000.0,0012.08,0006.08,0005.25
2022-08-13 18:27:00,,0831.4,5.00,0.00,30.3,28.2,00.0,38.7,31.5,33.8,0000.0,0012.27,0006.14,0005.26
2022-08-13 18:28:00,,0831.4,5.00,0.00,30.2,27.8,00.0,38.6,31.3,34.0,0000.0,0012.17,0006.16,0005.27
2022-08-13 18:29:00,,0831.4,5.01,0.00,30.2,27.3,00.0,38.6,31.2,33.9,0000.0,0011.77,0006.22,0005.29
2022-08-13 18:30:00,,0831.3,5.00,0.00,30.1,27.1,00.0,38.6,31.2,34.0,0000.0,0011.81,0006.24,0005.31
2022-08-13 18:31:00,,0831.3,4.99,0.00,30.0,27.2,00.0,38.5,31.1,34.3,0000.0,0011.64,0006.20,0005.31
2022-08-13 18:32:00,,0831.3,5.02,0.00,29.9,27.3,00.0,38.5,31.1,34.8,0000.0,0012.17,0006.27,0005.33
2022-08-13 18:33:00,,0831.4,4.99,0.00,30.0,27.5,00.0,38.5,31.2,34.5,0000.0,0012.29,0006.29,0005.34
2022-08-13 18:34:00,,0831.4,5.00,0.00,30.0,27.7,00.0,38.5,31.3,34.3,0000.0,0012.44,0006.30,0005.35
2022-08-13 18:35:00,,0831.3,4.99,0.00,30.1,27.9,00.0,38.5,31.4,34.0,0000.0,0012.29,0006.28,0005.36
2022-08-13 18:36:00,,0831.4,5.00,0.00,30.1,28.1,00.0,38.5,31.4,33.5,0000.0,0010.98,0006.29,0005.36
2022-08-13 18:37:00,,0831.3,4.99,0.00,30.1,28.2,00.0,38.6,31.5,33.6,0000.0,0012.61,0006.31,0005.36
2022-08-13 18:38:00,,0831.3,5.00,0.00,30.1,27.9,00.0,38.5,31.3,33.9,0000.0,0013.10,0006.33,0005.37
2022-08-13 18:39:00,,0831.3,4.99,0.00,30.0,27.4,00.0,38.5,31.2,33.9,0000.0,0014.33,0006.41,0005.39
2022-08-13 18:40:00,,0831.3,5.01,0.00,30.0,27.2,00.0,38.5,31.1,34.0,0000.0,0014.77,0006.41,0005.40
2022-08-13 18:41:00,,0831.3,5.00,0.00,29.9,27.2,00.0,38.4,31.0,34.3,0000.0,0014.82,0006.39,0005.40
2022-08-13 18:42:00,,0831.3,4.99,0.00,29.8,27.3,00.0,38.4,31.0,34.3,0000.0,0014.89,0006.38,0005.40
2022-08-13 18:43:00,,0831.3,5.01,0.00,29.8,27.5,00.0,38.4,31.1,34.5,0000.0,0014.54,0006.35,0005.40
2022-08-13 18:44:00,,0831.2,4.99,0.00,29.8,27.7,00.0,38.4,31.2,34.7,0000.0,0014.88,0006.32,0005.39
2022-08-13 18:45:00,,0831.3,5.01,0.00,29.8,27.9,00.0,38.4,31.3,34.9,0000.0,0015.07,0006.35,0005.40
2022-08-13 18:46:00,,0831.2,5.00,0.00,29.9,28.1,00.0,38.4,31.4,34.4,0000.0,0015.70,0006.38,0005.41
2022-08-13 18:47:00,,0831.2,5.00,0.00,30.0,28.1,00.0,38.4,31.4,34.3,0000.0,0015.80,0006.40,0005.42
2022-08-13 18:48:00,,0831.2,5.00,0.00,29.9,27.6,00.0,38.4,31.2,34.9,0000.0,0014.78,0006.40,0005.41
2022-08-13 18:49:00,,0831.2,5.01,0.00,30.0,27.2,00.0,38.4,31.1,35.3,0000.0,0013.95,0006.39,0005.41
2022-08-13 18:50:00,,0831.2,4.98,0.00,30.1,27.1,00.0,38.4,31.2,34.7,0000.0,0013.22,0006.34,0005.39
2022-08-13 18:51:00,,0831.2,5.00,0.00,30.1,27.2,00.0,38.4,31.2,34.5,0000.0,0012.69,0006.33,0005.38
2022-08-13 18:52:00,,0831.2,5.01,0.00,30.2,27.3,00.0,38.4,31.2,34.4,0000.0,0012.76,0006.32,0005.37
2022-08-13 18:53:00,,0831.2,4.98,0.00,30.2,27.5,00.0,38.4,31.2,34.2,0000.0,0013.03,0006.38,0005.37
2022-08-13 18:54:00,,0831.2,5.01,0.00,30.2,27.7,00.0,38.4,31.3,34.4,0000.0,0013.11,0006.42,0005.36
2022-08-13 18:55:00,,0831.2,5.00,0.00,30.2,27.9,00.0,38.5,31.4,34.7,0000.0,0013.16,0006.45,0005.37
2022-08-13 18:56:00,,0831.2,4.99,0.00,30.2,28.1,00.0,38.5,31.4,34.9,0000.0,0013.70,0006.42,0005.37
2022-08-13 18:57:00,,0831.1,4.99,0.00,30.3,27.9,00.0,38.5,31.3,34.7,0000.0,0012.96,0006.40,0005.35
2022-08-13 18:58:00,,0831.2,4.99,0.00,30.3,27.3,00.0,38.5,31.2,34.3,0000.0,0012.99,0006.41,0005.34
2022-08-13 18:59:00,,0831.2,5.01,0.00,30.3,27.1,00.0,38.5,31.2,34.4,0000.0,0012.87,0006.38,0005.34
